Change the Weather History Date:

Wednesday, December 26, 2012

  Actual Average Record
Temperature  
Mean Temperature 52 °F -  
Max Temperature 61 °F 55 °F 71 °F (1999)
Min Temperature 42 °F 35 °F 21 °F (2001)
Degree Days  
Heating Degree Days 14    
Growing Degree Days 2 (Base 50)    
Moisture  
Dew Point 46 °F    
Average Humidity 87    
Maximum Humidity 100    
Minimum Humidity 53    
Precipitation  
Precipitation 0.00 in 0.08 in - ()
Sea Level Pressure  
Sea Level Pressure 30.14 in    
Wind  
Wind Speed 2 mph ()    
Max Wind Speed 8 mph    
Max Gust Speed -    
Visibility 5.6 miles    
Events      
Averages and records for this station are not official NWS values.
T = Trace of Precipitation, MM = Missing Value Source: Averaged Metar Reports

Daily Weather History Graph

Daily Weather History Graph

Search for Another Location

Airport or City:

Trip Planner

Search our weather history database for the weather conditions in past years. The results will help you decide how hot, cold, wet, or windy it might be!

Date:

Astronomy

Dec. 26, 2012 Rise Set
Actual Time 8:15 AM CET 5:23 PM CET
Civil Twilight 7:43 AM CET 5:55 PM CET
Nautical Twilight 7:08 AM CET 6:30 PM CET
Astronomical Twilight 6:34 AM CET 7:04 PM CET
Moon 4:05 PM CET (12/26) 6:25 AM CET (12/26)
Length of Visible Light 10h 11m
Length of Day
9h 08m
Waxing Gibbous, 97% of the Moon is Illuminated
Dec 26
Waxing Gibbous
Dec 28
Full
Jan 5
Last Quarter
Jan 11
New
Jan 19
First Quarter

Hourly Weather History & Observations

Time (CET) Temp. Windchill Dew Point Humidity Pressure Visibility Wind Dir Wind Speed Gust Speed Precip Events Conditions
12:00 AM 50.0 °F - 48.2 °F 94% 29.95 in 3.7 mi North 4.6 mph - N/A   Scattered Clouds
12:30 AM 50.0 °F - 48.2 °F 94% 29.98 in 5.0 mi NNE 2.3 mph - N/A   Scattered Clouds
1:00 AM 51 °F - 45 °F 74% 29.98 in - North 2.3 mph - -  
1:00 AM 50.0 °F - 46.4 °F 87% 29.98 in 5.0 mi NNE 3.5 mph - N/A   Scattered Clouds
1:30 AM 48.2 °F - 46.4 °F 93% 29.98 in 5.0 mi West 1.2 mph - N/A   Scattered Clouds
2:00 AM 48.2 °F - 46.4 °F 93% 29.98 in 5.0 mi WNW 2.3 mph - N/A   Scattered Clouds
2:30 AM 48.2 °F - 46.4 °F 93% 29.98 in 5.0 mi West 3.5 mph - N/A   Scattered Clouds
3:00 AM 48.2 °F - 46.4 °F 93% 30.01 in 5.0 mi Calm Calm - N/A   Scattered Clouds
4:00 AM 48.2 °F - 46.4 °F 93% 30.01 in 5.0 mi Variable 1.2 mph - N/A   Scattered Clouds
4:30 AM 48.2 °F - 46.4 °F 93% 30.01 in 5.0 mi Calm Calm - N/A   Scattered Clouds
5:00 AM 46.4 °F - 46.4 °F 100% 30.01 in 5.0 mi Calm Calm - N/A   Scattered Clouds
5:30 AM 46.4 °F - 46.4 °F 100% 30.04 in 5.0 mi Calm Calm - N/A   Scattered Clouds
6:00 AM 46.4 °F - 46.4 °F 100% 30.04 in 5.0 mi WNW 2.3 mph - N/A   Scattered Clouds
6:30 AM 46.4 °F - 46.4 °F 100% 30.04 in 6.2 mi WNW 1.2 mph - N/A   Scattered Clouds
7:00 AM 47 °F - 45 °F 90% 30.06 in 6 mi Calm Calm - -   Partly Cloudy
7:00 AM 46.4 °F - 46.4 °F 100% 30.06 in 6.2 mi Calm Calm - N/A   Scattered Clouds
7:30 AM 46.4 °F - 46.4 °F 100% 30.06 in 6.2 mi Variable 1.2 mph - N/A   Scattered Clouds
8:00 AM 46.4 °F - 46.4 °F 100% 30.09 in 5.0 mi ENE 1.2 mph - N/A   Mostly Cloudy
8:30 AM 46.4 °F - 46.4 °F 100% 30.09 in 5.0 mi Calm Calm - N/A   Mostly Cloudy
9:00 AM 46.4 °F 45.2 °F 46.4 °F 100% 30.09 in 5.0 mi WSW 3.5 mph - N/A   Scattered Clouds
9:30 AM 46.4 °F - 46.4 °F 100% 30.12 in 6.2 mi NE 1.2 mph - N/A   Scattered Clouds
10:00 AM 48.2 °F - 48.2 °F 100% 30.15 in 6.2 mi Calm Calm - N/A   Mostly Cloudy
10:30 AM 50.0 °F - 50.0 °F 100% 30.15 in 6.2 mi Variable 1.2 mph - N/A   Partly Cloudy
11:00 AM 50.0 °F - 48.2 °F 94% 30.18 in 6.2 mi Variable 2.3 mph - N/A   Partly Cloudy
11:30 AM 53.6 °F - 46.4 °F 77% 30.18 in 6.2 mi Variable 2.3 mph - N/A   Partly Cloudy
12:30 PM 57.2 °F - 46.4 °F 67% 30.18 in 6.2 mi Calm Calm - N/A   Partly Cloudy
1:00 PM 60 °F - 47 °F 53% 30.17 in 9 mi SE 2.3 mph - -   Scattered Clouds
1:00 PM 57.2 °F - 46.4 °F 67% 30.18 in 6.2 mi SE 1.2 mph - N/A   Partly Cloudy
1:30 PM 59.0 °F - 44.6 °F 59% 30.18 in 6.2 mi Variable 1.2 mph - N/A   Partly Cloudy
2:00 PM 59.0 °F - 44.6 °F 59% 30.18 in 6.2 mi Variable 2.3 mph - N/A   Partly Cloudy
2:30 PM 59.0 °F - 44.6 °F 59% 30.15 in 6.2 mi South 4.6 mph - N/A   Partly Cloudy
3:00 PM 59.0 °F - 44.6 °F 59% 30.18 in 6.2 mi Variable 2.3 mph - N/A   Partly Cloudy
3:30 PM 59.0 °F - 46.4 °F 63% 30.18 in 6.2 mi Variable 2.3 mph - N/A   Partly Cloudy
4:00 PM 57.2 °F - 46.4 °F 67% 30.18 in 6.2 mi South 3.5 mph - N/A   Scattered Clouds
4:30 PM 57.2 °F - 46.4 °F 67% 30.18 in 6.2 mi SSW 8.1 mph - N/A   Scattered Clouds
5:00 PM 55.4 °F - 46.4 °F 72% 30.21 in 6.2 mi SSW 6.9 mph - N/A   Scattered Clouds
5:30 PM 53.6 °F - 46.4 °F 77% 30.21 in 6.2 mi SSW 4.6 mph - N/A   Scattered Clouds
6:00 PM 53.6 °F - 46.4 °F 77% 30.21 in 6.2 mi Variable 2.3 mph - N/A   Scattered Clouds
6:30 PM 51.8 °F - 46.4 °F 82% 30.24 in 6.2 mi Variable 2.3 mph - N/A   Scattered Clouds
7:00 PM 51 °F - 46 °F 78% 30.24 in 9 mi South 2.3 mph - -   Partly Cloudy
7:00 PM 50.0 °F - 46.4 °F 87% 30.24 in 6.2 mi South 2.3 mph - N/A   Scattered Clouds
7:30 PM 50.0 °F - 46.4 °F 87% 30.24 in 6.2 mi South 2.3 mph - N/A   Scattered Clouds
8:00 PM 50.0 °F - 46.4 °F 87% 30.27 in 6.2 mi Calm Calm - N/A   Mostly Cloudy
8:30 PM 48.2 °F - 46.4 °F 93% 30.27 in 6.2 mi Calm Calm - N/A   Mostly Cloudy
9:00 PM 46.4 °F - 46.4 °F 100% 30.27 in 5.6 mi Calm Calm - N/A   Mostly Cloudy
9:30 PM 46.4 °F - 46.4 °F 100% 30.27 in 4.3 mi Calm Calm - N/A   Mostly Cloudy
10:00 PM 44.6 °F - 44.6 °F 100% 30.27 in 3.7 mi Calm Calm - N/A   Scattered Clouds
10:30 PM 42.8 °F - 42.8 °F 100% 30.27 in 1.6 mi Calm Calm - N/A   Scattered Clouds
11:00 PM 42.8 °F - 42.8 °F 100% 30.30 in 2.2 mi Calm Calm - N/A   Scattered Clouds
11:30 PM 42.8 °F - 42.8 °F 100% 30.30 in 1.9 mi NNE 2.3 mph - N/A   Scattered Clouds